TimePST,TemperatureF,Dew PointF,Humidity,Sea Level PressureIn,VisibilityMPH,Wind Direction,Wind SpeedMPH,Gust SpeedMPH,PrecipitationIn,Events,Conditions,WindDirDegrees,DateUTC
12:53 AM,21.9,12.9,68,30.24,10.0,South,4.6,-,N/A,,Clear,190,2011-11-17 08:53:00
1:53 AM,19.9,14.0,78,30.22,10.0,South,8.1,-,N/A,,Clear,190,2011-11-17 09:53:00
2:53 AM,19.9,14.0,78,30.21,10.0,South,8.1,-,N/A,,Clear,170,2011-11-17 10:53:00
3:53 AM,19.0,12.9,77,30.22,10.0,North,-9999.0,-,N/A,,Clear,0,2011-11-17 11:53:00
4:53 AM,19.9,15.1,81,30.27,10.0,North,-9999.0,-,N/A,,Clear,0,2011-11-17 12:53:00
5:01 AM,19.4,15.8,86,30.20,10.0,SSE,8.1,-,N/A,,Clear,150,2011-11-17 13:01:00
5:53 AM,19.9,15.1,81,30.27,10.0,South,8.1,-,N/A,,Clear,180,2011-11-17 13:53:00
6:53 AM,19.9,15.1,81,30.27,10.0,SSE,9.2,-,N/A,,Clear,160,2011-11-17 14:53:00
7:53 AM,32.0,19.9,61,30.22,10.0,SSW,3.5,-,N/A,,Clear,210,2011-11-17 15:53:00
8:53 AM,41.0,21.0,45,30.17,10.0,SSE,3.5,-,N/A,,Clear,160,2011-11-17 16:53:00
9:53 AM,48.9,21.9,35,30.11,10.0,South,6.9,-,N/A,,Clear,180,2011-11-17 17:53:00
10:53 AM,52.0,19.9,28,30.05,10.0,SSE,3.5,-,N/A,,Clear,160,2011-11-17 18:53:00
11:53 AM,54.0,18.0,24,30.03,10.0,SSW,10.4,18.4,N/A,,Clear,200,2011-11-17 19:53:00
12:53 PM,55.0,17.1,23,29.98,10.0,SSW,6.9,-,N/A,,Clear,210,2011-11-17 20:53:00
1:53 PM,55.0,17.1,23,29.96,10.0,SSW,9.2,17.3,N/A,,Clear,210,2011-11-17 21:53:00
2:53 PM,51.1,19.0,28,29.94,10.0,South,10.4,-,N/A,,Clear,190,2011-11-17 22:53:00
3:53 PM,50.0,21.0,32,29.92,10.0,SSE,16.1,21.9,N/A,,Clear,150,2011-11-17 23:53:00
4:53 PM,45.0,19.9,37,29.93,10.0,South,13.8,-,N/A,,Clear,170,2011-11-18 00:53:00
5:53 PM,39.0,19.9,46,29.94,10.0,SSE,12.7,-,N/A,,Clear,160,2011-11-18 01:53:00
6:53 PM,37.0,19.9,50,29.94,10.0,South,12.7,-,N/A,,Clear,170,2011-11-18 02:53:00
7:53 PM,36.0,21.0,55,29.88,10.0,South,13.8,-,N/A,,Clear,180,2011-11-18 03:53:00
8:53 PM,39.0,19.9,46,29.81,10.0,South,17.3,-,N/A,,Clear,170,2011-11-18 04:53:00
9:53 PM,37.0,19.9,50,29.77,10.0,South,18.4,-,N/A,,Clear,180,2011-11-18 05:53:00
10:53 PM,35.1,19.9,54,29.76,10.0,South,15.0,-,N/A,,Clear,190,2011-11-18 06:53:00
11:53 PM,37.0,19.9,50,29.72,10.0,South,16.1,23.0,N/A,,Clear,190,2011-11-18 07:53:00